�������l�o���
Date,Time,MP-1(��Sv/h),MP-2(��Sv/h),MP-3(��Sv/h),MP-4(��Sv/h),MP-5(��Sv/h),MP-6(��Sv/h),MP-7(��Sv/h),MP-8(��Sv/h),����,����(m/s),���J
2022/06/29,00:00,0.589,0.856,0.543,1.031,0.731,0.346,0.599,0.565,�쐼,1.9,��
2022/06/29,00:10,0.588,0.855,0.543,1.030,0.733,0.346,0.600,0.563,�쐼,1.5,��
2022/06/29,00:20,0.588,0.855,0.544,1.030,0.733,0.345,0.599,0.563,��쐼,2.0,��
2022/06/29,00:30,0.587,0.856,0.544,1.029,0.734,0.346,0.598,0.563,�쐼,2.8,��
2022/06/29,00:40,0.588,0.854,0.543,1.030,0.732,0.345,0.600,0.565,�쐼,2.3,��
2022/06/29,00:50,0.588,0.855,0.544,1.031,0.733,0.345,0.600,0.564,�쐼,2.0,��
2022/06/29,01:00,0.588,0.854,0.542,1.033,0.732,0.347,0.599,0.564,��쐼,1.7,��
2022/06/29,01:10,0.587,0.854,0.541,1.031,0.732,0.345,0.598,0.564,��쐼,2.0,��
2022/06/29,01:20,0.586,0.855,0.545,1.029,0.733,0.346,0.599,0.563,�쐼,1.9,��
2022/06/29,01:30,0.586,0.854,0.544,1.030,0.732,0.346,0.599,0.563,��쐼,1.4,��
2022/06/29,01:40,0.587,0.853,0.543,1.031,0.735,0.346,0.598,0.564,��쐼,1.5,��
2022/06/29,01:50,0.586,0.856,0.545,1.031,0.733,0.346,0.599,0.562,�쐼,1.7,��
2022/06/29,02:00,0.587,0.856,0.544,1.031,0.733,0.345,0.598,0.564,��쐼,2.2,��
2022/06/29,02:10,0.588,0.855,0.544,1.031,0.732,0.345,0.597,0.565,��쐼,2.0,��
2022/06/29,02:20,0.585,0.855,0.544,1.031,0.732,0.346,0.598,0.565,��쐼,2.3,��
2022/06/29,02:30,0.590,0.856,0.543,1.031,0.733,0.347,0.598,0.564,��쐼,3.3,��
2022/06/29,02:40,0.588,0.856,0.543,1.029,0.732,0.345,0.598,0.562,��쐼,3.4,��
2022/06/29,02:50,0.588,0.854,0.547,1.033,0.732,0.345,0.600,0.565,�쐼,2.8,��
2022/06/29,03:00,0.587,0.854,0.544,1.032,0.733,0.347,0.600,0.565,��쐼,2.8,��
2022/06/29,03:10,0.587,0.855,0.543,1.031,0.733,0.346,0.599,0.564,��쐼,2.5,��
2022/06/29,03:20,0.587,0.856,0.545,1.032,0.734,0.345,0.599,0.566,��,2.0,��
2022/06/29,03:30,0.588,0.856,0.544,1.032,0.732,0.346,0.600,0.565,��쐼,1.2,��
2022/06/29,03:40,0.589,0.857,0.544,1.030,0.733,0.347,0.601,0.566,�쐼,1.2,��
2022/06/29,03:50,0.587,0.856,0.543,1.032,0.733,0.345,0.600,0.564,��쐼,1.1,��
2022/06/29,04:00,0.587,0.857,0.543,1.032,0.733,0.345,0.599,0.565,�k��,0.6,��
2022/06/29,04:10,0.588,0.856,0.543,1.028,0.732,0.345,0.601,0.565,�k,1.7,��
2022/06/29,04:20,0.588,0.855,0.542,1.030,0.732,0.346,0.600,0.565,�k,1.4,��
2022/06/29,04:30,0.587,0.857,0.543,1.032,0.732,0.348,0.600,0.564,�k,2.3,��
2022/06/29,04:40,0.587,0.855,0.544,1.032,0.733,0.345,0.600,0.566,�k,2.0,��
2022/06/29,04:50,0.585,0.855,0.546,1.030,0.733,0.346,0.600,0.564,�k�k��,1.2,��
2022/06/29,05:00,0.588,0.855,0.542,1.030,0.732,0.346,0.600,0.565,�k�k��,0.9,��
2022/06/29,05:10,0.587,0.856,0.544,1.031,0.734,0.346,0.600,0.565,�k�k��,0.9,��
2022/06/29,05:20,0.587,0.857,0.543,1.033,0.734,0.346,0.601,0.564,�k,1.4,��
2022/06/29,05:30,0.587,0.855,0.542,1.033,0.734,0.346,0.601,0.564,�k�k��,0.9,��
2022/06/29,05:40,0.589,0.856,0.543,1.031,0.733,0.346,0.603,0.565,���k��,1.4,��
2022/06/29,05:50,0.588,0.854,0.542,1.031,0.732,0.345,0.601,0.565,���쐼,1.1,��
2022/06/29,06:00,0.587,0.854,0.542,1.030,0.731,0.345,0.600,0.565,���k��,0.9,��
2022/06/29,06:10,0.587,0.855,0.543,1.030,0.735,0.346,0.600,0.565,�k�k��,0.6,��
2022/06/29,06:20,0.587,0.854,0.542,1.031,0.734,0.345,0.600,0.564,���k��,1.7,��
2022/06/29,06:30,0.587,0.857,0.541,1.031,0.730,0.345,0.601,0.564,��,2.2,��
2022/06/29,06:40,0.588,0.855,0.542,1.029,0.733,0.346,0.600,0.563,���k��,3.3,��
2022/06/29,06:50,0.588,0.855,0.542,1.030,0.732,0.346,0.601,0.565,�k��,2.3,��
2022/06/29,07:00,0.589,0.853,0.542,1.030,0.731,0.344,0.601,0.566,�k��,3.3,��
2022/06/29,07:10,0.589,0.854,0.544,1.032,0.732,0.346,0.601,0.565,�k��,3.2,��
2022/06/29,07:20,0.588,0.854,0.543,1.032,0.731,0.345,0.601,0.565,�k��,3.0,��
2022/06/29,07:30,0.589,0.856,0.545,1.029,0.733,0.347,0.602,0.565,�k��,2.2,��
2022/06/29,07:40,0.589,0.854,0.543,1.030,0.732,0.346,0.603,0.566,�k�k��,2.0,��
2022/06/29,07:50,0.586,0.853,0.544,1.029,0.732,0.346,0.602,0.564,�k��,2.0,��
2022/06/29,08:00,0.589,0.853,0.544,1.030,0.732,0.347,0.602,0.565,���k��,1.2,��
2022/06/29,08:10,0.590,0.854,0.544,1.032,0.731,0.346,0.601,0.562,�k��,1.1,��
2022/06/29,08:20,0.590,0.853,0.542,1.028,0.731,0.346,0.603,0.561,�k�k��,1.4,��
2022/06/29,08:30,0.588,0.852,0.544,1.030,0.731,0.346,0.602,0.562,�k�k��,2.0,��
2022/06/29,08:40,0.589,0.845,0.543,1.030,0.732,0.347,0.604,0.563,�k��,2.3,��
2022/06/29,08:50,0.589,0.847,0.544,1.030,0.733,0.346,0.604,0.563,�k��,3.0,��
2022/06/29,09:00,0.589,0.853,0.544,1.034,0.733,0.346,0.603,0.564,��,3.6,��
2022/06/29,09:10,0.589,0.854,0.543,1.033,0.733,0.345,0.604,0.563,���k��,2.6,��
2022/06/29,09:20,0.592,0.853,0.543,1.031,0.731,0.346,0.604,0.564,��,1.9,��
2022/06/29,09:30,0.592,0.854,0.544,1.032,0.732,0.345,0.601,0.563,�쐼,0.6,��
2022/06/29,09:40,0.589,0.855,0.542,1.033,0.733,0.346,0.601,0.563,�쐼,1.7,��
2022/06/29,09:50,0.590,0.856,0.543,1.031,0.734,0.345,0.601,0.563,�쐼,2.3,��
2022/06/29,10:00,0.591,0.858,0.545,1.033,0.734,0.346,0.601,0.562,���쐼,2.5,��
2022/06/29,10:10,0.590,0.856,0.544,1.034,0.734,0.346,0.600,0.563,��,3.2,��
2022/06/29,10:20,0.590,0.857,0.545,1.035,0.737,0.346,0.601,0.564,�쐼,4.9,��
2022/06/29,10:30,0.589,0.857,0.547,1.035,0.736,0.346,0.601,0.566,���쐼,4.0,��
2022/06/29,10:40,0.591,0.859,0.547,1.035,0.737,0.346,0.599,0.563,���쐼,2.9,��
2022/06/29,10:50,0.586,0.856,0.547,1.034,0.737,0.347,0.601,0.563,���쐼,3.6,��
2022/06/29,11:00,0.585,0.857,0.547,1.034,0.736,0.347,0.601,0.564,���쐼,3.8,��
2022/06/29,11:10,0.589,0.857,0.545,1.033,0.736,0.347,0.601,0.563,���쐼,3.8,��
2022/06/29,11:20,0.593,0.855,0.545,1.036,0.735,0.347,0.602,0.564,���쐼,3.0,��
2022/06/29,11:30,0.595,0.848,0.546,1.034,0.736,0.347,0.602,0.564,���쐼,3.4,��
2022/06/29,11:40,0.594,0.853,0.547,1.034,0.736,0.348,0.601,0.563,��,3.7,��
2022/06/29,11:50,0.595,0.860,0.547,1.035,0.737,0.349,0.603,0.563,���k��,6.4,��
2022/06/29,12:00,0.593,0.861,0.545,1.036,0.738,0.347,0.602,0.564,���k��,5.1,��
2022/06/29,12:10,0.594,0.862,0.549,1.034,0.738,0.349,0.600,0.564,���k��,4.1,��
2022/06/29,12:20,0.595,0.865,0.547,1.032,0.737,0.348,0.603,0.564,��,3.2,��
2022/06/29,12:30,0.595,0.862,0.549,1.036,0.739,0.348,0.600,0.564,��,5.8,��
2022/06/29,12:40,0.595,0.861,0.547,1.035,0.740,0.349,0.603,0.564,��,5.2,��
2022/06/29,12:50,0.595,0.863,0.548,1.034,0.741,0.349,0.601,0.565,��,7.1,��
2022/06/29,13:00,0.595,0.861,0.549,1.035,0.740,0.349,0.602,0.565,��,5.3,��
2022/06/29,13:10,0.596,0.861,0.547,1.035,0.741,0.349,0.601,0.564,���쐼,4.7,��
2022/06/29,13:20,0.597,0.860,0.548,1.035,0.739,0.348,0.601,0.565,��쐼,3.1,��
2022/06/29,13:30,0.595,0.861,0.550,1.036,0.741,0.349,0.602,0.566,��쐼,2.9,��
2022/06/29,13:40,0.597,0.863,0.549,1.038,0.741,0.349,0.602,0.566,��,4.7,��
2022/06/29,13:50,0.597,0.863,0.548,1.036,0.742,0.348,0.601,0.566,��,5.0,��
2022/06/29,14:00,0.597,0.863,0.549,1.036,0.742,0.349,0.600,0.566,��,4.6,��
2022/06/29,14:10,0.596,0.862,0.549,1.036,0.742,0.348,0.602,0.566,��쓌,6.5,��
2022/06/29,14:20,0.598,0.864,0.549,1.037,0.741,0.349,0.603,0.566,��,8.2,��
2022/06/29,14:30,0.598,0.862,0.550,1.039,0.743,0.349,0.602,0.567,��,6.2,��
2022/06/29,14:40,0.601,0.860,0.552,1.040,0.743,0.349,0.604,0.568,��,5.5,��
2022/06/29,14:50,0.598,0.860,0.549,1.038,0.741,0.350,0.605,0.567,��쓌,6.4,��
2022/06/29,15:00,0.597,0.862,0.550,1.040,0.744,0.349,0.603,0.568,��,6.5,��
2022/06/29,15:10,0.595,0.859,0.549,1.041,0.741,0.349,0.604,0.568,��,6.8,��
2022/06/29,15:20,0.596,0.858,0.549,1.042,0.742,0.348,0.604,0.566,��,7.1,��
2022/06/29,15:30,0.594,0.862,0.549,1.043,0.742,0.347,0.604,0.565,��,6.5,��
2022/06/29,15:40,0.596,0.861,0.546,1.041,0.743,0.348,0.602,0.567,��,6.4,��
2022/06/29,15:50,0.594,0.864,0.550,1.038,0.742,0.347,0.602,0.566,��,4.5,��
2022/06/29,16:00,0.595,0.861,0.550,1.042,0.740,0.346,0.602,0.566,��,4.2,��
2022/06/29,16:10,0.595,0.862,0.547,1.042,0.742,0.347,0.602,0.567,�쐼,2.6,��
2022/06/29,16:20,0.595,0.862,0.547,1.039,0.742,0.346,0.603,0.567,��쐼,4.3,��
2022/06/29,16:30,0.596,0.863,0.547,1.040,0.740,0.347,0.602,0.567,��,4.4,��
2022/06/29,16:40,0.593,0.864,0.547,1.040,0.740,0.346,0.603,0.567,��쐼,3.3,��
2022/06/29,16:50,0.594,0.862,0.548,1.039,0.742,0.345,0.602,0.566,��,3.6,��
2022/06/29,17:00,0.596,0.863,0.548,1.041,0.741,0.347,0.602,0.565,��,2.9,��
2022/06/29,17:10,0.596,0.864,0.549,1.041,0.741,0.348,0.602,0.564,��,2.2,��
2022/06/29,17:20,0.594,0.865,0.546,1.038,0.741,0.347,0.602,0.564,���쐼,1.2,��
2022/06/29,17:30,0.595,0.865,0.547,1.040,0.741,0.348,0.602,0.563,��,0.6,��
2022/06/29,17:40,0.594,0.865,0.547,1.040,0.741,0.347,0.601,0.565,�쐼,1.2,��
2022/06/29,17:50,0.596,0.865,0.547,1.039,0.740,0.348,0.601,0.565,��,0.9,��
2022/06/29,18:00,0.594,0.863,0.549,1.037,0.742,0.347,0.601,0.565,�k��,1.4,��
2022/06/29,18:10,0.594,0.863,0.547,1.041,0.741,0.345,0.601,0.565,�k��,2.2,��
2022/06/29,18:20,0.596,0.863,0.547,1.042,0.743,0.346,0.602,0.565,�k��,2.6,��
2022/06/29,18:30,0.596,0.862,0.548,1.040,0.741,0.345,0.603,0.566,���k��,2.8,��
2022/06/29,18:40,0.594,0.865,0.550,1.040,0.743,0.347,0.602,0.564,���k��,1.1,��
2022/06/29,18:50,0.595,0.864,0.548,1.041,0.741,0.347,0.601,0.564,��,1.4,��
2022/06/29,19:00,0.596,0.866,0.547,1.042,0.741,0.347,0.600,0.564,���쐼,0.8,��
2022/06/29,19:10,0.595,0.863,0.549,1.041,0.740,0.348,0.601,0.566,���쐼,1.2,��
2022/06/29,19:20,0.595,0.865,0.548,1.041,0.741,0.347,0.600,0.564,��,0.9,��
2022/06/29,19:30,0.595,0.862,0.546,1.042,0.743,0.348,0.599,0.565,���쐼,2.2,��
2022/06/29,19:40,0.594,0.862,0.548,1.041,0.742,0.349,0.602,0.564,��,2.5,��
2022/06/29,19:50,0.595,0.862,0.548,1.042,0.740,0.347,0.601,0.565,��,1.9,��
2022/06/29,20:00,0.594,0.863,0.547,1.040,0.741,0.346,0.600,0.564,���k��,3.1,��
2022/06/29,20:10,0.594,0.863,0.547,1.041,0.742,0.347,0.599,0.563,���k��,3.0,��
2022/06/29,20:20,0.594,0.866,0.549,1.042,0.742,0.347,0.601,0.565,���k��,3.3,��
2022/06/29,20:30,0.595,0.864,0.548,1.040,0.742,0.347,0.601,0.563,���k��,5.0,��
2022/06/29,20:40,0.594,0.866,0.548,1.039,0.741,0.348,0.601,0.564,���k��,6.4,��
2022/06/29,20:50,0.594,0.864,0.548,1.041,0.741,0.347,0.600,0.565,�k��,5.1,��
2022/06/29,21:00,0.595,0.866,0.548,1.039,0.742,0.347,0.600,0.565,�k�k��,4.6,��
2022/06/29,21:10,0.593,0.866,0.550,1.042,0.741,0.346,0.601,0.564,�k��,4.8,��
2022/06/29,21:20,0.593,0.865,0.546,1.040,0.743,0.347,0.598,0.564,�k��,4.8,��
2022/06/29,21:30,0.596,0.865,0.547,1.040,0.743,0.347,0.602,0.565,�k��,4.3,��
2022/06/29,21:40,0.593,0.864,0.548,1.040,0.742,0.348,0.600,0.564,�k��,3.6,��
2022/06/29,21:50,0.592,0.864,0.548,1.042,0.744,0.347,0.601,0.565,�k��,2.9,��
2022/06/29,22:00,0.592,0.866,0.547,1.040,0.743,0.348,0.600,0.564,�k�k��,2.6,��
2022/06/29,22:10,0.594,0.867,0.547,1.041,0.740,0.348,0.599,0.564,�k�k��,3.0,��
2022/06/29,22:20,0.594,0.864,0.547,1.041,0.742,0.348,0.599,0.564,�k��,2.0,��
2022/06/29,22:30,0.594,0.864,0.548,1.041,0.741,0.347,0.599,0.565,�k��,3.3,��
2022/06/29,22:40,0.590,0.865,0.547,1.040,0.741,0.348,0.598,0.565,�k��,3.3,��
2022/06/29,22:50,0.592,0.864,0.546,1.042,0.740,0.347,0.600,0.566,�k��,2.8,��
2022/06/29,23:00,0.594,0.863,0.545,1.042,0.743,0.349,0.602,0.564,���k��,2.5,��
2022/06/29,23:10,0.592,0.864,0.548,1.041,0.741,0.348,0.601,0.563,���k��,2.5,��
2022/06/29,23:20,0.593,0.864,0.547,1.043,0.743,0.345,0.602,0.564,���k��,4.0,��
2022/06/29,23:30,0.593,0.865,0.548,1.041,0.742,0.347,0.599,0.565,�k��,4.6,��
2022/06/29,23:40,0.592,0.864,0.546,1.040,0.742,0.349,0.601,0.564,�k��,3.5,��
2022/06/29,23:50,0.592,0.865,0.548,1.040,0.740,0.347,0.600,0.564,�k��,2.9,��
